This is the latest recevied weather packets stored in our database for station/object IU2RPR-3. If no packets are shown the sender has not sent any weather packets the latest 10 day(s).
| Time | Temp. | Humidity | Pressure | Rain* | Wind** | Luminosity | Snow |
|---|---|---|---|---|---|---|---|
| 1787970931 | 20° C | 91% | 1011.7 hPa | - | - | - | - |
| 1787969730 | 20.56° C | 89% | 1011.8 hPa | - | - | - | - |
| 1787968528 | 20° C | 88% | 1011.8 hPa | - | - | - | - |
| 1787967327 | 20° C | 89% | 1011.9 hPa | - | - | - | - |
| 1787966125 | 20° C | 91% | 1011.9 hPa | - | - | - | - |
| 1787964923 | 20.56° C | 90% | 1012.1 hPa | - | - | - | - |
| 1787963722 | 20.56° C | 90% | 1012.1 hPa | - | - | - | - |
| 1787961317 | 20.56° C | 92% | 1012.2 hPa | - | - | - | - |
| 1787956509 | 20.56° C | 90% | 1012 hPa | - | - | - | - |
| 1787955307 | 21.11° C | 87% | 1011.8 hPa | - | - | - | - |
| 1787954105 | 20.56° C | 89% | 1011.9 hPa | - | - | - | - |
| 1787952903 | 21.11° C | 87% | 1011.8 hPa | - | - | - | - |
| 1787951701 | 21.11° C | 84% | 1011.7 hPa | - | - | - | - |
| 1787950500 | 21.11° C | 83% | 1011.7 hPa | - | - | - | - |
| 1787949299 | 20.56° C | 86% | 1011.7 hPa | - | - | - | - |
| 1787945685 | 20.56° C | 89% | 1011.9 hPa | - | - | - | - |
| 1787944483 | 20.56° C | 89% | 1012 hPa | - | - | - | - |
| 1787943281 | 20.56° C | 90% | 1012 hPa | - | - | - | - |
| 1787942086 | 20.56° C | 87% | 1012.2 hPa | - | - | - | - |
| 1787940878 | 20.56° C | 94% | 1012.8 hPa | - | - | - | - |
| 1787939671 | 21.11° C | 82% | 1013.3 hPa | - | - | - | - |
| 1787938467 | 22.22° C | 82% | 1013.7 hPa | - | - | - | - |
| 1787937267 | 22.22° C | 78% | 1013.8 hPa | - | - | - | - |
| 1787936064 | 22.22° C | 79% | 1014.2 hPa | - | - | - | - |
| 1787934862 | 23.33° C | 85% | 1012.9 hPa | - | - | - | - |
* Rain since midnight (hover to see other rain measurements)
** Current wind speed in m/s (hover to see current wind gust speed)